Temperature
16 16 16 15 16 16 16 17 17 17 17 16 15 16 16 16 16 16 16 16 16 16 15 15 15 15 15 15 15 16 16 16 16 15 14 13 12 12 12 12 12 12 12
16 16 16 16 15 16 16 16 16 15 16 15 15 15 16 16 16 16 16 15 16 16 16 16 15 15 15 15 15 15 15 15 15 16 15 13 12 12 11 11 11 12 12
16 16 16 16 16 16 16 15 15 16 16 14 15 15 15 15 15 15 16 15 15 16 16 15 15 14 15 15 15 15 15 15 15 15 16 14 13 12 11 11 11 11 11
16 16 16 16 16 16 17 17 16 17 16 16 16 15 15 14 15 15 15 15 15 15 15 15 15 15 14 14 15 15 15 15 15 14 15 15 13 12 12 11 11 11 11
16 15 16 16 16 16 16 16 15 15 15 15 14 14 14 14 15 15 15 15 15 15 15 15 15 15 14 14 15 15 15 15 15 14 15 15 14 14 14 12 11 11 11
17 16 16 15 15 15 15 15 15 14 14 14 14 14 14 14 14 15 15 15 15 15 15 15 15 15 15 15 15 15 15 15 15 14 15 15 16 15 14 13 11 11 11
18 18 17 16 15 15 15 15 15 14 14 14 14 14 14 14 14 14 14 14 15 15 15 15 15 15 15 15 15 15 15 15 16 16 16 16 16 16 15 14 12 12 11
18 17 17 16 16 15 15 15 14 14 14 14 14 14 14 14 14 14 14 14 14 14 15 15 15 15 15 15 16 16 15 15 15 15 15 16 16 16 15 14 13 12 11
18 17 17 16 16 16 16 15 15 15 14 14 14 13 13 14 14 14 14 14 15 15 14 14 15 14 14 15 15 15 15 15 15 14 14 14 15 15 14 14 12 11 11
17 17 17 16 16 16 15 15 14 14 14 13 13 12 13 13 13 13 14 14 14 14 14 14 15 14 14 14 14 14 14 14 14 14 14 14 14 15 14 14 13 13 12
15 16 16 16 15 14 14 13 13 13 13 13 12 12 12 12 13 13 13 13 14 14 14 13 13 13 13 13 13 13 14 14 14 14 14 14 14 14 14 14 14 13 13
13 14 14 14 13 12 13 12 12 12 13 12 12 12 12 12 12 12 12 13 13 13 13 13 13 13 13 13 13 12 12 13 13 13 14 14 15 15 15 14 14 13 13
12 12 12 12 12 12 12 12 12 12 12 12 12 12 12 12 12 12 12 12 13 12 12 12 12 12 12 12 12 12 11 12 12 13 13 14 14 15 15 14 13 13 12
12 11 11 11 11 11 12 12 12 12 12 12 12 12 12 12 12 12 12 12 12 12 12 12 12 12 12 12 12 11 11 11 11 11 12 13 13 14 14 13 13 12 12
11 11 11 11 11 11 11 12 12 12 12 12 11 12 12 12 12 12 12 12 12 12 12 12 12 12 12 11 11 10 10 11 11 11 11 11 13 13 13 13 12 12 12
11 11 11 10 10 11 11 11 11 11 11 11 11 11 12 12 11 12 11 11 11 11 11 11 11 11 11 11 11 10 10 10 11 11 11 11 11 12 12 12 12 12 12
11 11 11 11 11 11 11 11 11 11 11 11 11 11 11 11 11 11 11 11 10 10 10 10 10 10 10 10 10 10 10 10 10 10 10 11 11 11 11 11 12 12 12
11 11 11 11 11 11 11 11 10 10 10 10 11 11 10 10 10 10 11 10 10 9 9 9 9 10 10 10 10 10 10 10 10 10 10 10 10 11 11 11 11 11 11
11 11 10 10 10 10 10 10 10 10 10 10 10 10 10 9 10 10 10 9 9 9 9 9 9 9 9 9 9 9 10 10 10 10 10 10 10 11 11 10 10 10 10
11 11 10 10 10 11 11 11 10 10 10 10 10 9 9 9 10 9 9 8 8 8 8 9 9 9 9 9 9 9 9 9 9 9 9 10 10 10 10 10 10 10 11
11 10 10 10 10 10 10 10 10 10 10 10 10 9 9 9 9 9 9 9 9 9 8 8 8 9 9 9 9 9 9 9 9 9 9 9 10 10 10 10 10 10 10
10 10 10 10 10 10 10 10 10 10 10 10 9 9 10 10 10 9 10 10 9 9 9 8 9 9 9 9 9 9 9 9 9 9 9 9 9 9 10 9 10 9 9
10 10 10 10 10 10 10 10 10 10 10 10 10 10 10 10 10 10 10 9 9 9 9 9 9 9 9 9 9 9 9 9 9 9 9 9 9 9 9 9 9 8 8
10 10 10 10 10 10 10 10 10 10 10 10 10 10 10 10 10 10 10 10 9 9 9 9 9 9 9 9 9 9 9 9 9 9 9 9 9 8 8 8 8 8 8
10 9 9 9 10 10 10 10 10 10 10 10 10 10 10 10 10 10 10 10 10 10 9 9 9 9 9 9 9 9 9 9 9 9 9 8 8 8 8 8 9 8 8
10 9 9 9 10 10 10 10 10 11 10 10 10 10 9 10 10 10 10 10 10 9 9 9 9 9 9 9 9 9 9 9 9 9 8 8 8 8 8 8 9 9 8
Wind_Speed
7 8 8 8 8 8 8 8 7 4 4 6 4 5 8 9 7 7 7 8 8 7 8 8 8 7 8 7 7 7 6 5 4 3 2 4 4 6 8 8 7 7 7
8 7 8 9 9 9 8 7 7 7 6 6 8 9 12 9 8 7 8 9 10 10 9 8 8 8 9 8 7 8 7 5 5 4 3 4 4 6 6 5 5 5 6
8 7 7 9 10 10 10 9 8 6 5 6 5 9 10 10 10 10 8 8 9 9 9 9 10 10 8 8 7 8 7 5 4 5 5 4 3 4 4 3 3 1 4
8 8 7 7 6 7 8 7 6 3 2 6 5 5 7 10 11 9 8 9 9 8 8 10 10 10 10 10 10 9 9 8 7 7 6 7 4 5 5 3 3 1 0
9 9 9 7 6 6 5 5 4 4 6 7 6 6 6 6 8 9 9 9 8 7 7 8 10 12 14 13 10 9 9 9 9 7 6 6 5 6 6 4 4 2 1
11 12 9 8 8 8 8 7 6 6 6 6 5 5 5 5 8 12 10 8 8 7 8 8 8 11 12 14 15 15 15 14 12 8 6 8 10 8 6 5 4 3 2
15 14 11 10 10 10 10 7 5 4 2 3 4 4 4 5 5 9 11 8 8 8 8 7 5 4 5 8 13 16 17 19 19 13 10 10 10 13 11 8 6 4 4
13 12 12 12 13 12 10 10 7 4 3 4 4 4 2 4 5 8 13 9 7 7 7 7 5 4 5 7 8 8 8 9 10 8 9 11 9 12 13 10 8 5 4
8 10 11 11 10 10 11 11 7 5 5 4 4 4 4 5 5 4 6 5 6 6 6 6 8 7 8 9 7 7 7 7 8 8 7 10 13 17 16 10 8 7 3
5 5 7 10 10 8 8 6 4 4 5 4 5 5 6 5 5 6 7 4 4 5 4 5 8 10 13 14 10 8 9 10 9 7 9 10 11 17 22 15 12 9 5
4 5 5 4 5 9 9 5 2 5 4 4 4 4 5 5 6 8 11 7 6 5 5 5 6 10 12 11 9 7 8 7 8 8 5 5 6 9 10 10 11 10 8
5 5 5 8 8 8 7 6 6 7 4 4 3 3 3 2 5 6 11 9 7 6 5 4 4 6 8 9 8 8 8 6 4 4 4 5 6 8 9 9 12 12 12
5 3 3 6 7 6 7 9 7 6 5 4 3 4 3 2 3 5 8 9 10 6 4 5 6 6 6 6 7 9 8 6 6 6 7 7 6 6 6 5 4 5 4
3 3 4 5 6 5 4 6 6 5 3 4 4 4 3 3 3 3 4 5 6 5 4 4 5 3 2 3 4 4 4 5 6 5 5 4 5 6 5 5 4 4 3
4 4 3 3 4 4 2 1 3 4 4 4 4 4 4 5 5 8 8 7 5 6 6 3 2 2 2 1 2 3 4 5 6 5 3 3 4 6 5 4 4 4 5
3 2 1 2 2 3 4 4 8 5 4 5 3 3 3 3 7 12 11 10 11 11 4 2 3 4 5 5 5 4 4 4 3 4 4 3 3 4 4 3 3 4 5
4 2 1 1 2 2 3 4 3 2 5 6 4 3 3 1 1 7 9 11 13 10 3 4 5 6 6 6 5 5 5 5 4 3 3 3 3 4 5 4 3 3 4
4 3 3 2 2 3 3 3 3 3 2 1 3 3 3 4 5 5 8 6 5 4 3 4 5 6 6 6 6 6 5 5 5 5 5 5 5 5 5 5 5 5 4
3 2 2 1 1 1 1 1 1 2 3 3 2 2 5 6 6 4 4 3 4 5 5 4 5 5 6 6 6 6 5 6 5 4 4 5 6 6 5 5 5 6 6
4 4 2 1 2 1 1 1 3 4 5 4 4 4 4 3 2 2 3 3 4 5 6 6 6 6 6 6 6 6 5 5 6 6 6 6 6 5 5 6 6 6 6
4 3 3 2 2 2 2 3 4 5 4 4 3 3 6 4 3 4 4 4 4 4 5 5 5 5 5 5 5 5 6 6 6 5 5 5 5 4 4 4 4 4 4
4 4 2 1 1 3 3 3 3 3 3 3 1 2 3 2 1 2 3 3 4 4 4 4 5 5 5 5 6 6 6 6 6 6 6 5 5 4 4 2 2 4 4
4 4 2 1 1 4 4 3 3 3 2 2 3 2 2 2 2 2 3 3 4 4 4 4 4 4 4 3 4 6 7 7 7 7 6 6 6 6 5 5 5 5 6
4 4 2 3 3 4 4 3 3 3 3 3 3 2 2 2 3 3 4 4 4 4 4 4 5 6 6 4 6 7 8 8 9 9 9 8 7 8 7 7 7 9 10
5 4 3 4 3 3 3 3 3 3 3 2 2 1 2 2 2 2 2 2 3 4 4 4 4 5 7 7 7 8 10 12 11 11 10 7 6 6 6 6 7 8 8
5 5 4 4 3 3 2 2 3 2 2 2 1 1 1 1 1 2 2 2 2 3 4 4 4 6 7 7 10 12 13 15 15 13 9 5 6 7 7 7 9 9 9
Wind_Direction
198 189 176 183 177 174 178 174 164 167 161 134 137 259 246 237 225 198 202 198 201 209 218 211 211 178 185 190 178 180 164 136 124 147 123 124 130 142 119 107 89 70 60
198 197 174 177 183 187 198 200 186 179 168 184 169 229 258 252 240 217 203 194 205 209 214 203 214 191 186 192 184 186 170 147 127 131 135 147 155 153 140 130 107 88 73
183 192 181 176 180 190 187 204 215 196 163 228 187 217 234 236 230 214 201 203 208 209 200 196 213 202 185 184 191 187 179 151 124 149 147 155 140 149 134 104 91 87 101
171 178 184 181 177 183 182 195 214 211 267 273 268 248 239 237 234 214 196 210 212 209 200 200 210 208 198 189 192 183 168 152 141 150 146 161 159 155 147 144 153 202 65
178 191 201 191 184 193 204 205 220 240 243 255 252 242 245 240 231 216 200 194 204 205 206 205 210 211 207 192 187 172 153 143 143 147 152 157 171 168 173 171 163 164 97
188 201 200 190 188 196 215 216 210 225 234 231 231 237 255 254 240 217 192 184 198 207 218 222 218 219 213 197 187 177 169 158 154 162 170 180 187 179 164 169 147 138 181
199 200 198 189 191 197 199 202 222 218 201 237 247 239 257 270 256 226 205 186 195 208 218 205 178 185 180 192 190 181 179 175 172 170 175 186 185 189 172 169 170 159 178
198 196 198 192 197 193 182 185 188 184 207 234 247 262 272 274 264 225 212 201 185 196 198 174 168 156 127 117 130 156 169 177 179 168 178 190 190 178 178 170 160 139 85
194 186 191 193 200 191 182 174 166 179 204 217 227 238 256 268 258 201 163 159 150 173 188 181 160 166 181 154 135 144 166 181 184 172 186 192 172 168 161 139 144 155 146
217 186 189 189 185 163 140 134 151 191 223 223 235 227 243 257 234 200 148 148 157 161 165 194 180 176 176 170 175 176 190 197 185 178 180 192 177 174 176 175 169 171 152
81 111 115 119 127 124 130 154 186 255 242 247 230 221 232 239 225 200 166 171 170 164 176 190 196 181 162 159 164 182 196 188 186 194 188 152 163 173 185 186 176 175 170
81 96 120 117 119 138 162 196 201 233 232 243 198 225 241 248 252 228 184 180 164 168 193 193 199 178 151 143 147 164 168 161 176 189 195 177 180 186 188 188 184 186 186
111 127 140 130 130 155 195 196 195 195 182 205 206 219 233 230 255 236 198 180 175 175 188 188 189 201 184 171 171 172 167 172 189 198 201 197 189 179 151 142 133 151 161
112 144 165 158 156 180 200 187 169 162 179 196 207 217 219 214 221 215 189 178 163 148 137 136 135 134 162 180 179 187 192 200 193 199 213 185 134 140 158 149 140 142 168
88 109 123 163 164 142 119 96 156 166 175 180 207 210 201 221 218 200 193 189 184 153 124 99 99 129 172 218 253 218 209 210 205 179 169 173 147 150 156 147 133 141 172
91 74 77 114 109 107 121 81 52 55 88 113 141 170 183 233 223 202 195 172 160 155 137 150 179 194 207 218 224 221 213 213 205 182 152 150 139 141 154 146 139 157 175
136 128 103 102 111 122 130 143 141 79 47 50 55 85 99 56 148 180 165 156 160 159 161 190 202 208 211 216 223 219 213 209 201 180 164 156 161 169 191 189 161 157 170
131 132 130 128 143 151 161 165 168 163 146 73 40 60 91 90 90 119 136 131 161 199 206 204 212 216 222 221 222 223 214 201 199 197 183 182 174 178 190 190 180 174 173
139 145 147 132 104 107 115 81 100 123 129 125 124 93 89 90 90 107 152 163 189 213 224 223 217 213 217 217 216 218 216 209 200 200 191 180 185 180 181 184 188 192 185
155 159 163 118 85 64 83 150 137 134 139 154 175 170 155 135 155 200 223 224 213 217 219 225 221 219 219 214 210 204 204 204 195 199 204 192 187 190 187 183 191 195 199
163 167 153 116 128 129 136 130 139 145 150 171 203 183 179 184 215 230 233 237 237 233 230 228 231 229 227 220 207 203 204 208 199 187 183 175 166 161 159 167 191 206 200
158 153 148 189 193 168 159 146 138 150 166 175 157 160 196 208 232 262 263 262 259 256 251 246 241 235 221 211 205 202 208 214 209 194 187 176 163 147 141 156 224 228 225
147 148 153 181 113 131 133 136 140 142 144 160 164 185 208 230 258 266 260 252 253 255 254 248 248 251 245 224 212 207 208 210 205 198 191 185 184 181 182 194 198 226 226
137 143 139 101 110 129 138 142 153 162 157 166 186 196 217 243 257 264 259 251 253 261 262 252 243 243 242 230 225 221 223 214 193 188 190 188 190 190 192 203 211 223 230
137 130 131 120 109 118 137 158 168 176 181 183 195 199 227 241 266 285 281 255 251 260 263 257 247 241 240 235 230 224 223 215 204 190 181 182 184 190 200 203 211 222 221
127 129 132 123 114 117 139 161 153 144 155 155 167 197 202 291 318 325 328 313 290 286 286 277 262 258 252 241 236 232 222 211 207 206 193 186 198 208 217 221 225 227 220
Height
1486 1486 1487 1489 1493 1495 1497 1499 1502 1505 1507 1509 1513 1515 1516 1516 1517 1517 1519 1520 1521 1523 1526 1528 1530 1532 1534 1536 1538 1540 1542 1545 1547 1549 1550 1552 1553 1555 1556 1556 1555 1554 1554
1484 1484 1485 1486 1489 1491 1493 1494 1498 1501 1503 1505 1507 1510 1511 1511 1511 1511 1513 1514 1515 1518 1521 1523 1525 1526 1528 1531 1534 1536 1538 1541 1545 1547 1548 1549 1550 1552 1553 1554 1554 1553 1553
1481 1482 1483 1484 1487 1488 1489 1492 1496 1499 1499 1501 1502 1505 1507 1509 1509 1508 1508 1510 1509 1512 1514 1516 1519 1521 1522 1526 1529 1531 1534 1538 1542 1545 1546 1547 1548 1549 1550 1551 1552 1552 1551
1478 1480 1482 1484 1486 1487 1489 1492 1495 1496 1496 1497 1498 1500 1501 1503 1504 1504 1504 1506 1506 1508 1510 1512 1515 1516 1517 1520 1523 1526 1529 1534 1538 1541 1543 1544 1545 1545 1547 1548 1549 1550 1549
1475 1477 1480 1482 1485 1487 1487 1489 1492 1493 1493 1494 1495 1496 1498 1498 1499 1499 1500 1502 1505 1506 1507 1508 1511 1513 1513 1515 1518 1522 1525 1528 1533 1537 1539 1540 1541 1541 1542 1545 1546 1546 1546
1471 1473 1476 1479 1480 1482 1484 1486 1488 1490 1491 1493 1493 1493 1494 1494 1494 1494 1497 1499 1502 1503 1503 1505 1507 1509 1510 1512 1514 1518 1521 1523 1527 1530 1534 1536 1537 1538 1539 1542 1543 1542 1543
1465 1468 1471 1473 1475 1477 1480 1482 1484 1487 1489 1490 1490 1490 1491 1491 1491 1491 1493 1494 1497 1499 1501 1502 1504 1505 1507 1510 1511 1513 1516 1519 1524 1527 1530 1532 1535 1536 1536 1538 1539 1540 1542
1460 1463 1466 1469 1470 1472 1475 1477 1480 1482 1484 1485 1485 1486 1486 1487 1488 1489 1490 1490 1492 1496 1498 1500 1501 1503 1504 1505 1507 1509 1512 1516 1520 1523 1527 1530 1533 1534 1534 1536 1538 1540 1540
1457 1459 1462 1465 1467 1469 1470 1471 1475 1478 1480 1480 1480 1481 1482 1483 1484 1485 1487 1488 1488 1491 1494 1496 1496 1498 1501 1501 1504 1506 1510 1512 1515 1518 1522 1526 1528 1530 1531 1532 1534 1536 1536
1453 1455 1457 1460 1462 1464 1468 1470 1473 1475 1476 1476 1477 1478 1479 1481 1482 1483 1484 1485 1486 1487 1489 1492 1493 1495 1497 1498 1500 1503 1506 1508 1511 1514 1517 1520 1523 1524 1527 1529 1530 1532 1533
1450 1451 1453 1456 1458 1461 1465 1469 1472 1475 1474 1472 1472 1475 1477 1479 1480 1480 1481 1483 1484 1485 1486 1488 1490 1491 1493 1494 1496 1498 1501 1505 1508 1510 1513 1514 1516 1519 1522 1525 1526 1528 1531
1449 1450 1452 1453 1454 1458 1462 1466 1468 1470 1470 1470 1470 1472 1473 1475 1477 1478 1479 1482 1483 1484 1486 1487 1487 1488 1489 1491 1493 1495 1497 1500 1502 1505 1508 1508 1511 1514 1517 1520 1523 1526 1530
1449 1450 1451 1451 1451 1454 1457 1460 1464 1465 1465 1467 1467 1468 1470 1473 1475 1476 1478 1480 1481 1482 1483 1483 1485 1485 1486 1488 1489 1491 1493 1495 1497 1499 1501 1503 1506 1509 1512 1517 1520 1523 1527
1449 1449 1450 1451 1452 1453 1455 1457 1459 1460 1461 1462 1464 1466 1467 1470 1472 1474 1475 1477 1479 1479 1480 1481 1482 1482 1483 1484 1485 1486 1487 1489 1491 1493 1495 1497 1500 1503 1508 1512 1516 1519 1522
1448 1448 1449 1450 1451 1453 1454 1456 1458 1459 1460 1461 1462 1463 1465 1467 1469 1470 1472 1474 1475 1476 1477 1477 1478 1480 1480 1481 1482 1483 1484 1485 1485 1487 1487 1489 1493 1498 1503 1509 1512 1515 1517
1447 1448 1448 1449 1450 1450 1453 1454 1455 1456 1457 1459 1460 1462 1462 1464 1465 1466 1468 1469 1471 1472 1472 1473 1475 1476 1477 1479 1480 1480 1480 1480 1481 1481 1482 1485 1489 1494 1500 1505 1508 1510 1513
1447 1447 1448 1448 1449 1450 1451 1453 1454 1455 1455 1456 1458 1459 1460 1462 1462 1463 1465 1466 1467 1468 1469 1470 1471 1473 1474 1475 1475 1475 1476 1477 1478 1477 1479 1483 1488 1494 1498 1501 1504 1506 1509
1447 1447 1448 1448 1448 1449 1449 1450 1451 1452 1453 1454 1454 1456 1457 1459 1460 1462 1463 1464 1465 1466 1467 1468 1469 1470 1470 1471 1472 1471 1471 1473 1475 1476 1478 1482 1487 1491 1494 1496 1499 1502 1505
1447 1447 1447 1447 1447 1447 1447 1449 1449 1450 1451 1452 1453 1453 1455 1456 1458 1460 1461 1462 1463 1463 1464 1465 1465 1466 1467 1467 1468 1467 1468 1469 1471 1473 1475 1478 1483 1486 1488 1491 1494 1498 1500
1447 1447 1448 1448 1448 1448 1449 1449 1450 1450 1451 1452 1452 1453 1454 1455 1456 1457 1458 1458 1459 1459 1460 1460 1461 1462 1462 1463 1464 1464 1465 1466 1466 1468 1471 1474 1477 1481 1484 1487 1490 1493 1495
1447 1448 1448 1449 1449 1449 1450 1450 1450 1450 1450 1451 1451 1452 1453 1454 1455 1455 1455 1455 1455 1455 1455 1456 1457 1457 1458 1458 1459 1460 1461 1462 1464 1465 1467 1470 1473 1476 1479 1482 1484 1487 1489
1447 1448 1448 1449 1449 1449 1450 1450 1450 1450 1450 1451 1451 1452 1452 1453 1453 1453 1453 1453 1453 1453 1453 1453 1453 1453 1454 1454 1455 1456 1457 1458 1460 1462 1464 1466 1469 1471 1474 1476 1479 1482 1484
1446 1448 1448 1448 1449 1449 1450 1450 1450 1450 1451 1450 1451 1451 1452 1452 1453 1453 1453 1453 1453 1452 1451 1449 1449 1449 1450 1451 1451 1452 1453 1455 1456 1457 1459 1461 1463 1466 1469 1471 1474 1476 1478
1446 1447 1448 1449 1449 1450 1451 1451 1452 1452 1452 1452 1452 1453 1453 1453 1453 1453 1452 1452 1451 1451 1450 1448 1446 1446 1447 1448 1447 1448 1449 1450 1451 1453 1454 1456 1458 1460 1464 1466 1468 1470 1472
1445 1446 1447 1448 1450 1451 1452 1452 1452 1452 1453 1453 1453 1454 1454 1453 1453 1452 1451 1450 1450 1449 1449 1448 1447 1445 1445 1444 1444 1444 1444 1445 1446 1448 1450 1452 1454 1456 1459 1461 1463 1465 1466
1444 1446 1447 1449 1450 1451 1451 1451 1452 1452 1453 1453 1453 1452 1452 1452 1452 1451 1451 1449 1449 1448 1448 1447 1446 1445 1444 1442 1442 1442 1442 1442 1443 1445 1446 1449 1451 1453 1455 1457 1458 1459 1460